Regional Weather Roundup
Issued by NWS

Home | Current Version | Previous Version | Text Only | Print | Product List | Glossary On
Versions: 1 2 3 4 5 6 7 8 9 10 11 12 13 14 15 16 17 18 19 20 21 22 23 24 25 26 27 28 29 30 31 32 33 34 35 36 37 38 39 40 41 42 43 44 45 46 47 48 49 50
000
ASUS43 KIND 302109
RWRIN

WEATHER ROUNDUP FOR INDIANA
NATIONAL WEATHER SERVICE INDIANAPOLIS IN
500 PM EDT THU MAR 30 2017

NOTE: "FAIR" INDICATES FEW OR NO CLOUDS BELOW 12,000 FEET WITH NO
SIGNIFICANT WEATHER AND/OR OBSTRUCTIONS TO VISIBILITY.

* - STATION DOES NOT REPORT WEATHER SUCH AS PRECIPITATION OR FOG.

+ - STATION NOT QUALITY CONTROLLED BY THE NATIONAL WEATHER SERVICE.
    USE DATA WITH CAUTION...ESPECIALLY DEWPOINT AND RELATIVE
    HUMIDITY OBSERVATIONS.

INZ001>003-010>013-019-020-302200-
NORTHWEST INDIANA

CITY           SKY/WX    TMP DP  RH WIND       PRES   REMARKS
GARY /AIRPORT/ CLOUDY    46  46 100 CALM      29.60F FOG
KNOX *+        CLOUDY    48  34  57 E10       29.61F
LA PORTE +     CLOUDY    46  44  96 E10       29.61F
MICHIGAN CITY+ LGT RAIN  45  45 100 SE7G20    29.61F
MONTICELLO +   CLOUDY    53  49  86 E10G16    29.57F
RENSSELAER +   PTSUNNY   54  52  94 E14       29.57F
VALPARAISO     CLOUDY    50  48  93 E14       29.60R

$$

LMZ046-743>745-302200-
SOUTHERN LAKE MICHIGAN

STATION/POSITION TIME  TEMP    WIND        PRES    WAVE
                       AIR SEA DIR/SP/G            HT
                 (UTC) (F)     (DEG/KT/KT) (MB)    (FT)
BURNS HARBOR     2040   44      60/ 16/ 27 1002.0F
MICHIGAN CITY    2040   46      70/ 10/ 13   N/A

$$

INZ004-005-014>016-021>024-302200-
NORTH CENTRAL INDIANA

CITY           SKY/WX    TMP DP  RH WIND       PRES   REMARKS
ELKHART        RAIN      45  41  87 E15       29.65S
GOSHEN         LGT RAIN  45  41  86 E13       29.63F
LOGANSPORT +   HVY RAIN  52  50  93 E10       29.60S
PERU/GRISSOM   PTSUNNY   54  54 100 E12       29.57F
ROCHESTER +    CLOUDY    52  48  87 E8        29.62F
SOUTH BEND     CLOUDY    44  32  62 E7        29.66R THUNDER
WARSAW +       LGT RAIN  46  43  87 E13       29.62F

$$

INZ006>009-017-018-025>027-302200-
NORTHEAST INDIANA

CITY           SKY/WX    TMP DP  RH WIND       PRES   REMARKS
ANGOLA *+      CLOUDY    41  34  75 E15       29.68R
AUBURN +       CLOUDY    45  43  93 E12       29.67S
FORT WAYNE     CLOUDY    50  46  86 E16       29.62F
HUNTINGTON +   CLOUDY    49  48  95 E10G18    29.60F
KENDALLVILLE + CLOUDY    44  42  95 E13       29.66S

$$

INZ028-029-035-036-043>045-051>053-302200-
WEST CENTRAL INDIANA

CITY           SKY/WX    TMP DP  RH WIND       PRES   REMARKS
CRAWFORDSVL +  RAIN      63  60  89 SW8       29.54F
GREENCASTLE +  MOSUNNY   73  52  46 S9G21     29.53F
LAFAYETTE      CLOUDY    57  54  89 NE10      29.55F
TERRE HAUTE    CLOUDY    70  55  59 VRB5      29.51F

$$

INZ030>032-037>040-046>048-054>057-064-065-302200-
CENTRAL INDIANA

CITY           SKY/WX    TMP DP  RH WIND       PRES   REMARKS
CP ATTERBURY + PTSUNNY   75  52  43 SW18G28   29.56S
COLUMBUS       SUNNY     73  57  56 S16G28    29.57S
FRANKFORT +    PTSUNNY   63  59  86 E7        29.57F
GREENWOOD *+   CLOUDY    74  56  53 SW17G23   29.55S
INDIANAPOLIS   CLOUDY    71  58  63 SW21      29.54F
-EAGLE CREEK   MOSUNNY   72  56  57 S14G25    29.54S
KOKOMO +       TSTM      54  52  93 NE7       29.60R FOG
MARION +       LGT RAIN  55  51  87 NE10      29.58F
MT COMFORT *+  CLOUDY    73  59  60 S14G25    29.54F
SHELBYVILLE    CLOUDY    74  57  55 S23G30    29.55F
ZIONSVILLE +   LGT RAIN  62  58  87 NW7G16    29.56F

$$

INZ033-034-041-042-049-050-058-059-302200-
EAST CENTRAL INDIANA

CITY           SKY/WX    TMP DP  RH WIND       PRES   REMARKS
MUNCIE         TSTM      62  56  80 E10       29.57F
RICHMOND +     CLOUDY    72  54  53 S25       29.60F HAZE

$$

INZ060-061-067>069-081>083-085>088-302200-
SOUTHWEST INDIANA

CITY           SKY/WX    TMP DP  RH WIND       PRES   REMARKS
EVANSVILLE     PTSUNNY   78  52  40 S21G33    29.54F
HUNTINGBURG *+ CLOUDY    75  54  47 S22G33    29.56F
WASHINGTON +   MOSUNNY   74  52  46 CALM      29.53F

$$

INZ062-063-066-070>080-084-089>092-302200-
SOUTH CENTRAL AND SOUTHEAST INDIANA

CITY           SKY/WX    TMP DP  RH WIND       PRES   REMARKS
BLOOMINGTON    CLOUDY    75  53  46 SW13      29.54F
MADISON *+     CLOUDY    73  52  46 S18G24    29.62S
SEYMOUR +      PTSUNNY   75  55  50 S21       29.58S

$$





USA.gov is the U.S. government's official web portal to all federal, state and local government web resources and services.